Orbital Elements at Epoch 2459200.5 (2020-Dec-17.0) TDB
Reference: JPL 24 (heliocentric ecliptic J2000)
Element | Value | Uncertainty (1-sigma) | Units |
e | .1222653744776446 | 3.8697e-08 | |
a | 2.331111341313967 | 9.1769e-09 | au |
q | 2.046097140219131 | 9.0897e-08 | au |
i | 3.068296486142667 | 4.5258e-06 | deg |
node | 207.6400838125768 | 6.2599e-05 | deg |
peri | 218.6000358810635 | 6.5035e-05 | deg |
M | 224.880263248497 | 1.9783e-05 | deg |
tp | 2459688.431933897911 (2022-Apr-18.93193390) | 7.3254e-05 | TDB |
period | 1299.998804218318 3.56 | 7.6766e-06 2.102e-08 | d yr |
n | .2769233316460364 | 1.6352e-09 | deg/d |
Q | 2.616125542408803 | 1.0299e-08 | au |
|
| | Orbit Determination Parameters
Additional Information
|